| time (UTC) | temp F | wind direction | speed MPH | gust MPH | rain 1hr in | rain 24hr in | rain mn in | humidity % | barometer mb |
| 20260506235007 | 54 | 225 | 0.0 | 0.0 | 0.00 | 2.99 | 0.00 | 97 | 1012.4 |
| 20260506234007 | 54 | 248 | 0.0 | 0.0 | 0.00 | 3.20 | 0.00 | 97 | 1012.5 |
| 20260506233008 | 54 | 248 | 0.0 | 0.0 | 0.00 | 3.25 | 0.00 | 97 | 1012.4 |
| 20260506232008 | 54 | 248 | 0.0 | 0.0 | 0.00 | 3.25 | 0.00 | 97 | 1012.7 |
| 20260506231008 | 54 | 248 | 0.0 | 0.0 | 0.00 | 3.26 | 0.00 | 96 | 1012.3 |
| 20260506230007 | 55 | 248 | 0.0 | 0.0 | 0.00 | 3.35 | 0.00 | 96 | 1012.3 |
| 20260506225007 | 55 | 248 | 0.0 | 0.0 | 0.00 | 3.44 | 0.00 | 96 | 1012.1 |
| 20260506224010 | 55 | 248 | 0.0 | 0.0 | 0.00 | 3.44 | 0.00 | 96 | 1012.3 |
| 20260506223008 | 56 | 248 | 0.0 | 1.0 | 0.00 | 3.44 | 0.00 | 96 | 1012.4 |
| 20260506222008 | 56 | 248 | 1.0 | 1.0 | 0.00 | 3.44 | 0.00 | 96 | 1012.3 |
| 20260506221008 | 57 | 248 | 0.0 | 0.0 | 0.00 | 3.44 | 0.00 | 96 | 1012.1 |
| 20260506220007 | 57 | 248 | 0.0 | 1.0 | 0.00 | 3.44 | 0.00 | 96 | 1012.1 |
| 20260506215008 | 57 | 248 | 0.0 | 0.0 | 0.00 | 3.44 | 3.44 | 96 | 1012.0 |
| 20260506214009 | 57 | 248 | 0.0 | 1.0 | 0.00 | 3.44 | 3.44 | 96 | 1012.1 |
| 20260506213007 | 57 | 248 | 0.0 | 1.0 | 0.00 | 3.44 | 3.44 | 96 | 1012.1 |
| 20260506212007 | 57 | 248 | 0.0 | 1.0 | 0.00 | 3.44 | 3.44 | 95 | 1012.1 |
| 20260506211007 | 58 | 248 | 0.0 | 1.0 | 0.00 | 3.44 | 3.44 | 95 | 1011.9 |
| 20260506210008 | 58 | 248 | 0.0 | 2.0 | 0.00 | 3.44 | 3.44 | 95 | 1011.9 |
| 20260506205007 | 58 | 248 | 1.0 | 2.0 | 0.00 | 3.44 | 3.44 | 95 | 1011.6 |
| 20260506204008 | 58 | 248 | 1.0 | 1.0 | 0.00 | 3.44 | 3.44 | 94 | 1011.8 |
| 20260506203007 | 58 | 248 | 0.0 | 0.0 | 0.00 | 3.45 | 3.44 | 94 | 1011.8 |
| 20260506202008 | 59 | 248 | 0.0 | 0.0 | 0.00 | 3.45 | 3.44 | 94 | 1011.9 |
| 20260506201007 | 59 | 248 | 0.0 | 0.0 | 0.00 | 3.45 | 3.44 | 94 | 1011.8 |
| 20260506200008 | 59 | 248 | 0.0 | 0.0 | 0.00 | 3.45 | 3.44 | 93 | 1011.6 |
| 20260506194007 | 59 | 248 | 0.0 | 0.0 | 0.00 | 3.45 | 3.44 | 92 | 1011.4 |
| 20260506193010 | 60 | 248 | 0.0 | 0.0 | 0.00 | 3.45 | 3.44 | 92 | 1011.1 |
| 20260506192008 | 60 | 248 | 0.0 | 0.0 | 0.00 | 3.45 | 3.44 | 91 | 1011.0 |
| 20260506191007 | 60 | 248 | 0.0 | 0.0 | 0.00 | 3.45 | 3.44 | 90 | 1010.8 |
| 20260506190008 | 61 | 248 | 0.0 | 2.0 | 0.00 | 3.45 | 3.44 | 89 | 1010.5 |
| 20260506185007 | 61 | 248 | 1.0 | 3.0 | 0.00 | 3.45 | 3.44 | 88 | 1010.3 |
| 20260506183007 | 62 | 248 | 2.0 | 5.0 | 0.00 | 3.45 | 3.44 | 85 | 1010.2 |
| 20260506182007 | 63 | 248 | 2.0 | 5.0 | 0.00 | 3.45 | 3.44 | 83 | 1010.1 |
| 20260506181008 | 63 | 248 | 3.0 | 5.0 | 0.00 | 3.45 | 3.44 | 82 | 1010.0 |
| 20260506180007 | 63 | 249 | 2.0 | 6.0 | 0.00 | 3.45 | 3.44 | 81 | 1010.1 |
| 20260506175007 | 64 | 248 | 2.0 | 5.0 | 0.00 | 3.45 | 3.44 | 81 | 1010.1 |
| 20260506174007 | 64 | 292 | 3.0 | 6.0 | 0.00 | 3.45 | 3.44 | 81 | 1009.8 |
| 20260506173007 | 64 | 227 | 5.0 | 8.0 | 0.00 | 3.45 | 3.44 | 81 | 1009.8 |
| 20260506172007 | 64 | 225 | 4.0 | 7.0 | 0.00 | 3.45 | 3.44 | 79 | 1009.8 |
| 20260506170008 | 64 | 226 | 3.0 | 8.0 | 0.00 | 3.45 | 3.44 | 80 | 1010.0 |
| 20260506165007 | 64 | 248 | 3.0 | 7.0 | 0.00 | 3.45 | 3.44 | 79 | 1010.0 |
| 20260506164008 | 64 | 248 | 1.0 | 8.0 | 0.00 | 3.45 | 3.44 | 82 | 1010.0 |
| 20260506163007 | 65 | 226 | 1.0 | 7.0 | 0.00 | 3.45 | 3.44 | 81 | 1010.2 |
| 20260506162007 | 64 | 226 | 4.0 | 8.0 | 0.00 | 3.45 | 3.44 | 81 | 1010.1 |
| 20260506161007 | 64 | 249 | 3.0 | 10.0 | 0.00 | 3.45 | 3.44 | 81 | 1010.1 |
| 20260506160007 | 64 | 270 | 3.0 | 9.0 | 0.00 | 3.45 | 3.44 | 81 | 1010.0 |
| 20260506155008 | 64 | 249 | 6.0 | 10.0 | 0.00 | 3.45 | 3.44 | 79 | 1010.0 |
| 20260506154007 | 65 | 249 | 4.0 | 10.0 | 0.00 | 3.45 | 3.44 | 77 | 1010.0 |
| 20260506153008 | 66 | 269 | 5.0 | 12.0 | 0.00 | 3.45 | 3.44 | 76 | 1009.9 |
| 20260506152009 | 65 | 247 | 5.0 | 10.0 | 0.00 | 3.45 | 3.44 | 78 | 1009.9 |
| 20260506151009 | 65 | 225 | 5.0 | 12.0 | 0.00 | 3.45 | 3.44 | 76 | 1010.0 |
| 20260506150008 | 65 | 204 | 7.0 | 15.0 | 0.00 | 3.45 | 3.44 | 76 | 1009.8 |
| 20260506145007 | 66 | 225 | 7.0 | 15.0 | 0.00 | 3.45 | 3.44 | 73 | 1009.9 |
| 20260506144008 | 66 | 268 | 9.0 | 14.0 | 0.00 | 3.45 | 3.44 | 74 | 1009.9 |
| 20260506143007 | 68 | 290 | 7.0 | 14.0 | 0.00 | 3.45 | 3.44 | 72 | 1009.8 |
| 20260506142007 | 68 | 267 | 7.0 | 15.0 | 0.00 | 3.45 | 3.44 | 74 | 1009.8 |
| 20260506141008 | 66 | 270 | 7.0 | 17.0 | 0.00 | 3.45 | 3.44 | 78 | 1009.9 |
| 20260506140010 | 66 | 270 | 8.0 | 16.0 | 0.00 | 3.45 | 3.44 | 81 | 1009.7 |
| 20260506135007 | 66 | 289 | 5.0 | 17.0 | 0.00 | 3.45 | 3.44 | 83 | 1009.8 |
| 20260506134007 | 66 | 249 | 9.0 | 17.0 | 0.00 | 3.45 | 3.44 | 83 | 1010.1 |
| 20260506133008 | 66 | 225 | 6.0 | 16.0 | 0.00 | 3.45 | 3.44 | 83 | 1010.3 |
| 20260506131008 | 67 | 248 | 9.0 | 15.0 | 0.00 | 3.45 | 3.44 | 81 | 1010.1 |
| 20260506130007 | 66 | 248 | 8.0 | 15.0 | 0.00 | 3.45 | 3.44 | 83 | 1010.1 |
| 20260506125011 | 67 | 227 | 7.0 | 17.0 | 0.00 | 3.45 | 3.44 | 82 | 1010.1 |
| 20260506124007 | 66 | 268 | 7.0 | 20.0 | 0.00 | 3.45 | 3.44 | 81 | 1010.1 |
| 20260506123007 | 66 | 268 | 9.0 | 16.0 | 0.20 | 3.45 | 3.44 | 82 | 1010.2 |
| 20260506122007 | 67 | 248 | 5.0 | 13.0 | 0.20 | 3.45 | 3.44 | 87 | 1010.0 |
| 20260506121007 | 65 | 248 | 3.0 | 14.0 | 0.20 | 3.45 | 3.44 | 89 | 1009.9 |
| 20260506120007 | 63 | 248 | 7.0 | 15.0 | 0.21 | 3.45 | 3.44 | 96 | 1009.9 |
| 20260506115007 | 63 | 291 | 8.0 | 16.0 | 0.21 | 3.45 | 3.44 | 96 | 1009.6 |
| 20260506114008 | 63 | 227 | 9.0 | 20.0 | 0.21 | 3.45 | 3.44 | 94 | 1009.9 |
| 20260506113007 | 66 | 203 | 5.0 | 15.0 | 0.01 | 3.25 | 3.24 | 87 | 1009.9 |
| 20260506111008 | 66 | 201 | 6.0 | 17.0 | 0.01 | 3.25 | 3.24 | 88 | 1009.7 |
| 20260506110009 | 68 | 201 | 5.0 | 15.0 | 0.00 | 3.24 | 3.22 | 82 | 1009.6 |
| 20260506105007 | 69 | 203 | 7.0 | 18.0 | 0.00 | 3.24 | 3.22 | 79 | 1009.6 |
| 20260506103007 | 67 | 95 | 5.0 | 10.0 | 0.00 | 3.25 | 3.22 | 83 | 1009.7 |
| 20260506102008 | 67 | 225 | 5.0 | 12.0 | 0.00 | 3.26 | 3.22 | 83 | 1009.6 |
| 20260506095008 | 67 | 177 | 2.0 | 7.0 | 0.00 | 3.27 | 3.22 | 82 | 1009.7 |
| 20260506094007 | 67 | 224 | 2.0 | 18.0 | 0.00 | 3.30 | 3.22 | 83 | 1009.6 |
| 20260506093007 | 67 | 201 | 5.0 | 15.0 | 0.00 | 3.56 | 3.22 | 81 | 1009.7 |
| 20260506091007 | 67 | 225 | 4.0 | 15.0 | 0.00 | 3.91 | 3.22 | 82 | 1009.4 |
| 20260506090007 | 67 | 183 | 6.0 | 17.0 | 0.00 | 3.92 | 3.22 | 84 | 1009.4 |
| 20260506085007 | 67 | 204 | 7.0 | 16.0 | 0.00 | 3.92 | 3.22 | 82 | 1009.2 |
| 20260506084008 | 68 | 185 | 5.0 | 16.0 | 0.00 | 3.93 | 3.22 | 84 | 1009.4 |
| 20260506083007 | 65 | 183 | 6.0 | 16.0 | 0.00 | 3.97 | 3.22 | 86 | 1009.5 |
| 20260506082007 | 64 | 201 | 6.0 | 16.0 | 0.00 | 4.00 | 3.22 | 87 | 1009.5 |
| 20260506081007 | 62 | 179 | 9.0 | 18.0 | 0.00 | 4.02 | 3.22 | 92 | 1009.4 |
| 20260506073007 | 59 | 95 | 5.0 | 12.0 | 0.04 | 4.04 | 3.22 | 98 | 1009.5 |
| 20260506072007 | 59 | 182 | 5.0 | 13.0 | 0.06 | 4.09 | 3.22 | 98 | 1009.6 |
| 20260506071007 | 60 | 225 | 1.0 | 10.0 | 0.09 | 4.20 | 3.22 | 98 | 1009.7 |
| 20260506062007 | 58 | 202 | 0.0 | 0.0 | 0.46 | 4.17 | 3.17 | 99 | 1009.6 |
| 20260506061008 | 58 | 158 | 0.0 | 2.0 | 0.59 | 4.13 | 3.13 | 99 | 1009.9 |
| 20260506051007 | 57 | 112 | 0.0 | 2.0 | 0.46 | 3.63 | 2.54 | 99 | 1009.5 |
| 20260506045007 | 57 | 248 | 0.0 | 2.0 | 0.92 | 3.69 | 2.48 | 99 | 1009.6 |
| 20260506044008 | 57 | 225 | 0.0 | 1.0 | 1.10 | 3.91 | 2.47 | 99 | 1009.4 |
| 20260506043007 | 57 | 225 | 1.0 | 5.0 | 1.15 | 4.02 | 2.43 | 99 | 1009.6 |
| 20260506042007 | 57 | 68 | 1.0 | 5.0 | 1.04 | 3.97 | 2.31 | 99 | 1009.5 |
| 20260506041007 | 57 | 68 | 1.0 | 5.0 | 0.84 | 3.78 | 2.08 | 99 | 1009.5 |
| 20260506040007 | 57 | 112 | 0.0 | 2.0 | 0.60 | 3.70 | 1.78 | 99 | 1009.6 |
| 20260506035008 | 57 | 90 | 1.0 | 3.0 | 0.41 | 3.52 | 1.56 | 99 | 1009.5 |
| 20260506034007 | 57 | 90 | 0.0 | 5.0 | 0.33 | 3.35 | 1.37 | 99 | 1009.6 |
| 20260506033007 | 57 | 90 | 0.0 | 3.0 | 0.28 | 3.31 | 1.29 | 99 | 1009.8 |
| 20260506030007 | 57 | 68 | 2.0 | 9.0 | 0.21 | 3.22 | 1.18 | 99 | 1009.9 |
| 20260506025008 | 57 | 90 | 1.0 | 2.0 | 0.18 | 3.19 | 1.15 | 99 | 1009.9 |
| 20260506024007 | 56 | 156 | 1.0 | 1.0 | 0.07 | 3.08 | 1.04 | 99 | 1010.4 |
| 20260506021007 | 56 | 158 | 0.0 | 0.0 | 0.00 | 3.21 | 0.97 | 99 | 1010.0 |
| 20260506020007 | 56 | 158 | 0.0 | 0.0 | 0.01 | 3.22 | 0.97 | 99 | 1010.3 |
| 20260506015008 | 56 | 92 | 0.0 | 2.0 | 0.01 | 3.25 | 0.97 | 99 | 1010.2 |
| 20260506014008 | 56 | 90 | 0.0 | 0.0 | 0.04 | 3.27 | 0.97 | 99 | 1010.4 |
| 20260506013007 | 56 | 90 | 0.0 | 0.0 | 0.09 | 3.28 | 0.97 | 99 | 1010.6 |
| 20260506012007 | 56 | 90 | 0.0 | 0.0 | 0.14 | 3.32 | 0.97 | 99 | 1010.3 |
| 20260506011007 | 56 | 90 | 0.0 | 3.0 | 0.21 | 3.37 | 0.97 | 99 | 1010.5 |
| 20260506010007 | 56 | 68 | 0.0 | 3.0 | 0.26 | 3.39 | 0.96 | 98 | 1010.6 |
| 20260506005007 | 56 | 137 | 1.0 | 2.0 | 0.51 | 3.40 | 0.96 | 98 | 1010.8 |
| 20260506002008 | 58 | 158 | 0.0 | 0.0 | 0.64 | 3.33 | 0.83 | 98 | 1010.9 |
| 20260506001007 | 59 | 202 | 0.0 | 0.0 | 0.58 | 3.27 | 0.76 | 98 | 1011.0 |